Погода в Майкопе

Поиск расширенной информации на нашем сайте:

Полезная информация:

Новости сайта



02.01.2020
Опубликован Долгосрочный прогноз погоды по городам России и ближнего зарубежья на январь 2020 года.
Карты: Прогноз на январь и февраль 2020 года, Сравнение прогнозируемой аномалии приземной температуры воздуха на январь 2020 года по разным моделям.




Погода в Майкопе - сегодня

Время (UTC), дата Ветер
(°,м/с) 
Видим.   Явления Облачность Т
(°С)
Тd
(°С)
f(%) Тe
(°С)
Pmin
(гПа)
dP
(гПа)
Po
(мм)
O2
(г/м3)
Тmin Tmax R s Состояние
почвы
15 18.10.20 300 (СЗ) 20000 м    8/3 1000 м средняя, верхняя 
[Sc|Ac trans|Ci sp]
+19.7 +10.8 56 +23  1015.2  0.8  742  277    +28.6       
18 18.10.20 270 (З) 20000 м    9/3 1000 м верхняя 
[Sc|Ci sp]
+18.8 +13.3 70 +26  1016.9  1.6  744  278           
21 18.10.20 170 (Ю) 20000 м    10/6 600 м средняя 
[Sc|Ac As]
+17.7 +13.6 77 +26  1017  744  279           
00 19.10.20 130 (ЮВ) 20000 м  {ливн. осадки}  9/4 600 м кучево-дожд., средняя 
[Cb cap|Ac trans]
+14.7 +13.4 92 +22  1017.1  -0.2  743  282           
03 19.10.20 160 (Ю) 4000 м  дымка  8/0 средняя, верхняя 
[Ac trans|Ci sp]
+12.9 +12.6 98 +19  1018.1  0.8  744  284  +12.9    0.1    сухая 
06 19.10.20 080 (В) 10 км    9/6 1000 м средняя, верхняя 
[Sc|Ac As|Ci sp]
+16.8 +13.8 82 +25  1017.7  744  280           
09 19.10.20 270 (З) 10 км  слаб. ливневой дождь  10/8 1000 м кучево-дожд., средняя 
[Cb cap|Ac As]
+17.4 +15.7 90 +29  1017.7  0.4  744  279           
12 19.10.20 тихо ()   20000 м  в посл. час гроза{ливн. осадки}  10/5 1000 м кучево-дожд., средняя 
[Cb cap|Ac und]
+15.8 +13.7 87 +23  1016.3  -1.9  743  280           
15 19.10.20 250 (З) 2{11}  10 км  в посл. час ливневой дождь  10/5 1000 м кучево-дожд., средняя 
[Cb cap|Ac und]
+13.5 +11.9 90 +18  1019  2.4  745  284    +17.9     
18 19.10.20 200 (Ю) 20000 м  {ливн. осадки}  8/3 1000 м средняя 
[Sc diur, vesp|Ac As]
+12.1 +10.4 89 +14  1021.8  2.5  747  286           
21 19.10.20 230 (ЮЗ) 20000 м    4/1 1000 м средняя 
[Sc diur, vesp|Ac As]
+10.8 +9.4 91 +12  1024.1  2.1  748  288           
00 20.10.20 тихо ()   10 км    3/1 1000 м средняя 
[Sc diur, vesp|Ac As]
+8.5 +8 97 +9  1025.3  0.9  749  291           
03 20.10.20 тихо ()   4000 м  дымка  9/4 1000 м средняя, верхняя 
[Sc|Ac As|Ci sp]
+9.3 +9 98 +9  1025.9  0.7  749  290  +8.3    0.3    влажная 
06 20.10.20 тихо ()   10 км    9/4 1000 м средняя, верхняя 
[Sc|Ac trans|Ci sp]
+10.8 +9 89 +11  1026.7  0.7  750  289           
09 20.10.20 310 (СЗ) 20000 м    10/4 1000 м средняя, верхняя 
[Sc|Ac trans|Ci sp]
+12.5 +9 79 +14  1026.3  -0.3  750  287           
12 20.10.20 350 (С) 20000 м    10/4 1000 м средняя, верхняя 
[Sc|Ac trans|Ci sp]
+13.4 +4.2 54 +14  1025.8  -0.4  750  287           
15 20.10.20 тихо ()   20000 м    10/4 1000 м средняя 
[Sc|Ac As]
+11 +7.4 78 +11  1026.4  0.4  750  289    +13.6       
18 20.10.20 тихо ()   20000 м    8/3 1000 м средняя 
[Sc|Ac trans]
+7.9 +6.6 91 +8  1027.9  1.2  751  293           
21 20.10.20 260 (З) 10 км    8/3 1000 м средняя 
[Sc|Ac trans]
+7.1 +6.6 97 +8  1028.9  0.9  752  294           
00 21.10.20 тихо ()   10 км    9/0 средняя, верхняя 
[Ac trans|Ci sp]
+7.3 +6.3 93 +7  1029.3  0.4  752  294           
03 21.10.20 360 (С) 10 км    8/0 верхняя 
[Ci sp]
+5.1 +4.3 95 +6  1030.6  753  297  +5.1        влажная 
06 21.10.20 100 (В) 20000 м    ясно 
+11.1 +5.3 67 +12  1030.3  0.3  753  291  +4         
09 21.10.20 020 (С) 20000 м    ясно 
+14.3 +3 46 +15  1029.7  -0.3  753  288           
12 21.10.20 050 (СВ) 20000 м    3/0 верхняя 
[Ci fib]
+15.3 +3.3 45 +17  1028.2  -1.4  752  286           
15 21.10.20 070 (В) 20000 м    3/0 верхняя 
[Ci fib]
+10.2 +4 65 +11  1027.8  -0.8  751  291    +15.7       
Время (UTC), дата Ветер
(°,м/с) 
Видим.   Явления Облачность Т
(°С)
Тd
(°С)
f(%) Тe
(°С)
Pmin
(гПа)
dP
(гПа)
Po
(мм)
O2
(г/м3)
Тmin Tmax R s Состояние
почвы

Для получения пояснительной информации подведите курсор к названию столбца.

ПОГОДА в Майкопе - архив

Всё, что Вы хотите узнать о погоде в Майкопе - удобно и подробно!

Выберите нужную дату (начиная с 1 января 2019* года) и нажмите кнопку "Найти".
Будут отображены архивные сводки погоды по пункту Майкоп, начиная с указанной даты.


Отображать данные в формате CSV (для использования в таблицах Excel)


Внимание! Наш архив погоды предназначен исключительно для личного некоммерческого использования в познавательных целях. Если Вам необходимы официальные справки о состоянии погоды (для производственных, юридических, коммерческих и т.п. целей), обращайтесь в органы Росгидромета.

*Примечание: данная дата относится к архиву по метеостанциям СССР (Россия, СНГ, Балтия).
Архив по метеостанциям Зарубежной Европы и Азии (кроме Китая) хранится 10 дней, по другим регионам земного шара (Китай, Африка, Америка, Австралия, Океания) - 1 день.

Майкоп - район местоположения метеостанции


Название, широта, долгота, высота метеостанции:
Майкоп 44.7°ш. 40.1°д. 207 м над ур. моря [Российская Федерация]

Дополнительная информация

В oтличие oт бoльшинства пoгoдных сайтoв мы публикуем пoдрoбную метеoинфoрмацию в детальнoм прoфессиoнальнoм фoрмате.

Характеристики температуры и влажнoсти вoздуха измеряются на высoте 2 м в тени вдали oт зданий и деревьев.
Скoрoсть ветра измеряется на высoте 10 м (на урoвне рoста челoвека скoрoсть ветра ниже в 1.5-2 раза). Если метеoстанция нахoдится в гoрoде или в лесу, тo скoрoсть ветра занижена на 2-4 м/с пo сравнению с oткрытым местoм. Скoрoсть ветра над акватoриями крупных рек и oзёр, а также на вершинах хoлмoв на 2-5 м/с выше, чем в oбычных услoвиях.
Атмoсфернoе давление в разных тoчках местнoсти мoжет значительнo oтличаться oт давления на метеoстанции, в зависимoсти oт услoвий рельефа (при пoдъёме на 10 м давление пoнижается примернo на 1 мм рт.ст.).